Appleton, MN

11:54 AM CST on January 20, 2018 (GMT -0600)
Appleton Municipal

Weather History for KAQP - November, 2014

Change the Weather History Date:

Tuesday, November 25, 2014

  Actual Average Record
Temperature  
Mean Temperature 17 °F -  
Max Temperature 28 °F 33 °F 50 °F (1998)
Min Temperature 6 °F 17 °F -13 °F (1996)
Degree Days  
Heating Degree Days 48    
Moisture  
Dew Point 12 °F    
Average Humidity 72    
Maximum Humidity 85    
Minimum Humidity 55    
Precipitation  
Precipitation 0.00 in - - ()
Sea Level Pressure  
Sea Level Pressure 29.97 in    
Wind  
Wind Speed 7 mph (SE)    
Max Wind Speed 14 mph    
Max Gust Speed -    
Visibility 10 miles    
Events      
Averages and records for this station are not official NWS values.
T = Trace of Precipitation, MM = Missing Value Source: NWS Daily Summary

Daily Weather History Graph

Daily Weather History Graph

Search for Another Location

Airport or City:

Trip Planner

Search our weather history database for the weather conditions in past years. The results will help you decide how hot, cold, wet, or windy it might be!

Date:

Astronomy

Nov. 25, 2014 Rise Set
Actual Time 7:35 AM CST 4:46 PM CST
Civil Twilight 7:02 AM CST 5:18 PM CST
Nautical Twilight 6:26 AM CST 5:55 PM CST
Astronomical Twilight 5:51 AM CST 6:30 PM CST
Moon 10:19 AM CST (11/25) 8:14 PM CST (11/25)
Length of Visible Light 10h 16m
Length of Day
9h 10m
Waxing Crescent, 13% of the Moon is Illuminated
Nov 25
Waxing Crescent
Nov 29
First Quarter
Dec 6
Full
Dec 14
Last Quarter
Dec 21
New

Hourly Weather History & Observations

Time (CST) Temp. Windchill Dew Point Humidity Pressure Visibility Wind Dir Wind Speed Gust Speed Precip Events Conditions
12:14 AM 12.2 °F -0.2 °F 6.8 °F 79% 30.01 in 10.0 mi WNW 9.2 mph - N/A   Clear
12:34 AM 12.2 °F 0.7 °F 5.0 °F 73% 30.01 in 10.0 mi WNW 8.1 mph - N/A   Clear
12:54 AM 10.4 °F -0.4 °F 3.2 °F 73% 30.02 in 10.0 mi WNW 6.9 mph - N/A   Clear
1:15 AM 8.6 °F -2.6 °F 3.2 °F 79% 30.02 in 10.0 mi West 6.9 mph - N/A   Clear
1:34 AM 8.6 °F -2.6 °F 3.2 °F 79% 30.02 in 10.0 mi West 6.9 mph - N/A   Clear
1:54 AM 8.6 °F -2.6 °F 3.2 °F 79% 30.03 in 10.0 mi WNW 6.9 mph - N/A   Clear
2:14 AM 6.8 °F -4.8 °F 1.4 °F 79% 30.04 in 10.0 mi WNW 6.9 mph - N/A   Clear
2:35 AM 8.6 °F -1.3 °F 3.2 °F 79% 30.05 in 10.0 mi WNW 5.8 mph - N/A   Clear
2:54 AM 8.6 °F -1.3 °F 1.4 °F 73% 30.05 in 10.0 mi WNW 5.8 mph - N/A   Clear
3:14 AM 8.6 °F 0.1 °F 3.2 °F 79% 30.04 in 10.0 mi West 4.6 mph - N/A   Clear
3:34 AM 8.6 °F - 3.2 °F 79% 30.03 in 10.0 mi Calm Calm - N/A   Mostly Cloudy
3:55 AM 10.4 °F - 5.0 °F 79% 30.01 in 10.0 mi Calm Calm - N/A   Scattered Clouds
4:14 AM 12.2 °F 6.1 °F 6.8 °F 79% 30.02 in 10.0 mi SW 3.5 mph - N/A   Mostly Cloudy
4:34 AM 12.2 °F 6.1 °F 6.8 °F 79% 30.02 in 10.0 mi WSW 3.5 mph - N/A   Mostly Cloudy
4:54 AM 12.2 °F - 6.8 °F 79% 30.02 in 10.0 mi Calm Calm - N/A   Clear
5:14 AM 10.4 °F - 6.8 °F 85% 30.02 in 10.0 mi Calm Calm - N/A   Clear
5:34 AM 10.4 °F - 5.0 °F 79% 30.02 in 10.0 mi Calm Calm - N/A   Clear
5:54 AM 10.4 °F 4.0 °F 5.0 °F 79% 30.02 in 10.0 mi SSE 3.5 mph - N/A   Clear
6:14 AM 8.6 °F - 5.0 °F 85% 30.01 in 10.0 mi Calm Calm - N/A   Scattered Clouds
6:34 AM 10.4 °F 4.0 °F 6.8 °F 85% 30.00 in 10.0 mi South 3.5 mph - N/A   Mostly Cloudy
6:54 AM 12.2 °F 6.1 °F 6.8 °F 79% 30.00 in 10.0 mi SSE 3.5 mph - N/A   Mostly Cloudy
7:14 AM 12.2 °F 4.3 °F 6.8 °F 79% 29.99 in 10.0 mi SSE 4.6 mph - N/A   Mostly Cloudy
7:35 AM 12.2 °F 4.3 °F 6.8 °F 79% 29.99 in 10.0 mi SSE 4.6 mph - N/A   Scattered Clouds
7:54 AM 14.0 °F 8.2 °F 6.8 °F 73% 30.00 in 10.0 mi South 3.5 mph - N/A   Scattered Clouds
8:14 AM 15.8 °F 8.6 °F 8.6 °F 73% 30.00 in 10.0 mi SSE 4.6 mph - N/A   Mostly Cloudy
8:34 AM 15.8 °F 10.2 °F 8.6 °F 73% 30.00 in 10.0 mi SE 3.5 mph - N/A   Mostly Cloudy
8:54 AM 17.6 °F - 10.4 °F 73% 30.01 in 10.0 mi Calm Calm - N/A   Mostly Cloudy
9:14 AM 17.6 °F 10.7 °F 10.4 °F 73% 30.00 in 10.0 mi SSE 4.6 mph - N/A   Mostly Cloudy
9:35 AM 19.4 °F 11.5 °F 10.4 °F 68% 30.00 in 10.0 mi SSE 5.8 mph - N/A   Mostly Cloudy
9:55 AM 19.4 °F 11.5 °F 10.4 °F 68% 30.01 in 10.0 mi SE 5.8 mph - N/A   Scattered Clouds
10:15 AM 21.2 °F 14.9 °F 10.4 °F 63% 30.01 in 10.0 mi SSE 4.6 mph - N/A   Scattered Clouds
10:34 AM 21.2 °F 12.6 °F 10.4 °F 63% 30.01 in 10.0 mi SSE 6.9 mph - N/A   Scattered Clouds
10:55 AM 23.0 °F 17.0 °F 12.2 °F 63% 30.00 in 10.0 mi SSE 4.6 mph - N/A   Scattered Clouds
11:15 AM 24.8 °F 16.9 °F 12.2 °F 59% 29.99 in 10.0 mi South 6.9 mph - N/A   Scattered Clouds
11:34 AM 24.8 °F 16.1 °F 12.2 °F 59% 29.98 in 10.0 mi SSE 8.1 mph - N/A   Scattered Clouds
11:54 AM 26.6 °F 21.2 °F 12.2 °F 55% 29.99 in 10.0 mi SSE 4.6 mph - N/A   Scattered Clouds
12:14 PM 26.6 °F 19.1 °F 14.0 °F 59% 29.98 in 10.0 mi SSE 6.9 mph - N/A   Scattered Clouds
12:35 PM 26.6 °F 18.2 °F 15.8 °F 64% 29.97 in 10.0 mi SSE 8.1 mph - N/A   Scattered Clouds
12:54 PM 26.6 °F 21.2 °F 15.8 °F 64% 29.97 in 10.0 mi SSE 4.6 mph - N/A   Scattered Clouds
1:14 PM 26.6 °F 20.0 °F 17.6 °F 69% 29.96 in 10.0 mi South 5.8 mph - N/A   Scattered Clouds
1:34 PM 26.6 °F 20.0 °F 17.6 °F 69% 29.96 in 10.0 mi SSE 5.8 mph - N/A   Scattered Clouds
1:55 PM 26.6 °F 20.0 °F 17.6 °F 69% 29.95 in 10.0 mi SSE 5.8 mph - N/A   Scattered Clouds
2:15 PM 26.6 °F 18.2 °F 17.6 °F 69% 29.94 in 10.0 mi ESE 8.1 mph - N/A   Scattered Clouds
2:34 PM 26.6 °F 18.2 °F 17.6 °F 69% 29.93 in 10.0 mi SE 8.1 mph - N/A   Mostly Cloudy
2:55 PM 28.4 °F 19.7 °F 19.4 °F 69% 29.93 in 10.0 mi ESE 9.2 mph - N/A   Mostly Cloudy
3:15 PM 28.4 °F 20.4 °F 19.4 °F 69% 29.93 in 10.0 mi ESE 8.1 mph - N/A   Mostly Cloudy
3:34 PM 28.4 °F 19.1 °F 19.4 °F 69% 29.93 in 10.0 mi ESE 10.4 mph - N/A   Mostly Cloudy
3:55 PM 28.4 °F 19.1 °F 19.4 °F 69% 29.92 in 10.0 mi ESE 10.4 mph - N/A   Mostly Cloudy
4:15 PM 28.4 °F 18.5 °F 19.4 °F 69% 29.92 in 10.0 mi ESE 11.5 mph - N/A   Scattered Clouds
4:34 PM 28.4 °F 19.1 °F 19.4 °F 69% 29.92 in 10.0 mi SE 10.4 mph - N/A   Scattered Clouds
4:54 PM 28.4 °F 19.7 °F 19.4 °F 69% 29.92 in 10.0 mi SE 9.2 mph - N/A   Scattered Clouds
5:14 PM 26.6 °F 16.8 °F 19.4 °F 74% 29.92 in 10.0 mi SE 10.4 mph - N/A   Scattered Clouds
5:34 PM 26.6 °F 16.2 °F 19.4 °F 74% 29.92 in 10.0 mi SE 11.5 mph - N/A   Clear
5:54 PM 26.6 °F 16.2 °F 17.6 °F 69% 29.92 in 10.0 mi ESE 11.5 mph - N/A   Clear
6:15 PM 26.6 °F 16.2 °F 17.6 °F 69% 29.92 in 10.0 mi ESE 11.5 mph - N/A   Scattered Clouds
6:34 PM 26.6 °F 16.2 °F 17.6 °F 69% 29.91 in 10.0 mi ESE 11.5 mph - N/A   Mostly Cloudy
6:54 PM 26.6 °F 16.8 °F 17.6 °F 69% 29.91 in 10.0 mi ESE 10.4 mph - N/A   Overcast
7:15 PM 26.6 °F 16.8 °F 17.6 °F 69% 29.91 in 10.0 mi ESE 10.4 mph - N/A   Mostly Cloudy
7:34 PM 26.6 °F 17.5 °F 17.6 °F 69% 29.92 in 10.0 mi ESE 9.2 mph - N/A   Overcast
7:54 PM 26.6 °F 16.8 °F 17.6 °F 69% 29.91 in 10.0 mi ESE 10.4 mph - N/A   Mostly Cloudy
8:14 PM 26.6 °F 15.2 °F 17.6 °F 69% 29.90 in 10.0 mi ESE 13.8 mph - N/A   Scattered Clouds
8:34 PM 26.6 °F 16.2 °F 17.6 °F 69% 29.90 in 10.0 mi ESE 11.5 mph - N/A   Scattered Clouds
8:54 PM 26.6 °F 16.2 °F 17.6 °F 69% 29.90 in 10.0 mi ESE 11.5 mph - N/A   Mostly Cloudy
9:14 PM 26.6 °F 16.8 °F 17.6 °F 69% 29.90 in 10.0 mi ESE 10.4 mph - N/A   Overcast
9:34 PM 26.6 °F 17.5 °F 17.6 °F 69% 29.90 in 10.0 mi ESE 9.2 mph - N/A   Overcast
9:54 PM 26.6 °F 16.8 °F 17.6 °F 69% 29.90 in 10.0 mi ESE 10.4 mph - N/A   Overcast
10:14 PM 26.6 °F 15.7 °F 17.6 °F 69% 29.90 in 10.0 mi ESE 12.7 mph - N/A   Overcast
10:34 PM 26.6 °F 16.2 °F 17.6 °F 69% 29.90 in 10.0 mi ESE 11.5 mph - N/A   Overcast
10:55 PM 26.6 °F 16.8 °F 19.4 °F 74% 29.90 in 10.0 mi ESE 10.4 mph - N/A   Overcast
11:15 PM 26.6 °F 16.8 °F 19.4 °F 74% 29.91 in 10.0 mi ESE 10.4 mph - N/A   Overcast
11:35 PM 26.6 °F 17.5 °F 19.4 °F 74% 29.91 in 10.0 mi ESE 9.2 mph - N/A   Overcast
11:54 PM 26.6 °F 17.5 °F 19.4 °F 74% 29.92 in 10.0 mi ESE 9.2 mph - N/A   Overcast